Regional Weather Roundup
Issued by NWS

Home | Current Version | Previous Version | Graphics & Text | Print | Product List | Glossary On
Versions: 1 2 3 4 5 6 7 8 9 10 11 12 13 14 15 16 17 18 19 20 21 22 23 24 25 26 27 28 29 30 31 32 33 34 35 36 37 38 39 40 41 42 43 44 45 46 47 48 49 50
000
ASUS43 KBIS 061920
RWRND

NORTH DAKOTA REGIONAL WEATHER ROUNDUP
NATIONAL WEATHER SERVICE BISMARCK ND
200 PM CDT WED MAY 06 2015

NOTE: "FAIR" INDICATES FEW OR NO CLOUDS BELOW 12,000 FEET WITH NO
SIGNIFICANT WEATHER AND/OR OBSTRUCTIONS TO VISIBILITY.


NDZ001>003-009>011-017-062000-
NORTHWEST NORTH DAKOTA

CITY           SKY/WX    TMP DP  RH WIND       PRES   REMARKS
WILLISTON      LGT RAIN  60  57  89 SE5       29.70F FOG
MINOT          LGT RAIN  60  58  92 E15       29.70F FOG
MINOT AFB      LGT RAIN  61  61 100 E10       29.69F FOG
$$

NDZ018>021-031>035-040>046-062000-
SOUTHWEST NORTH DAKOTA

CITY           SKY/WX    TMP DP  RH WIND       PRES   REMARKS
BISMARCK       CLOUDY    66  62  87 SE18      29.68F
DICKINSON      LGT RAIN  60  56  86 SE7       29.66F
GARRISON         N/A     62  59  90 SE14      29.68F
HETTINGER ARPT LGT RAIN  58  56  93 S7        29.68F FOG
$$

NDZ004>008-012>016-024-026-027-054-062000-
NORTHEAST NORTH DAKOTA

CITY           SKY/WX    TMP DP  RH WIND       PRES   REMARKS
GRAND FORKS    CLOUDY    63  59  87 SE14G23   29.84F
GRND FRKS AFB  CLOUDY    63  59  88 SE14      29.83F
DEVILS LAKE    CLOUDY    57  54  88 SE14      29.77F
$$

NDZ022-023-025-028>030-036>039-047>053-062000-
SOUTHEAST NORTH DAKOTA

CITY           SKY/WX    TMP DP  RH WIND       PRES   REMARKS
FARGO          LGT RAIN  64  60  87 SE12      29.84F
JAMESTOWN      CLOUDY    61  58  90 SE16G25   29.76F
$$



USA.gov is the U.S. government's official web portal to all federal, state and local government web resources and services.